Weather History for Andalusia, AL

Change the Weather History Date:

Friday, July 26, 2013

  Actual Average (KCEW) Record (KCEW)
Temperature  
Mean Temperature 82 °F -  
Max Temperature 91 °F 91 °F 99 °F (1983)
Min Temperature 73 °F 71 °F 66 °F (2000)
Cooling Degree Days 17    
Growing Degree Days 32 (Base 50)    
Moisture  
Dew Point 69 °F    
Average Humidity 69    
Maximum Humidity 91    
Minimum Humidity 42    
Precipitation  
Precipitation 0.00 in - - ()
Sea Level Pressure  
Sea Level Pressure 30.00 in    
Wind  
Wind Speed 3 mph (NW)    
Max Wind Speed 9 mph    
Max Gust Speed 16 mph    
Visibility 10 miles    
Events      
Averages and records for this station are not official NWS values.
T = Trace of Precipitation, MM = Missing Value Source: NWS Daily Summary

Daily Weather History Graph

Daily Weather History Graph

Search for Another Location

Airport:

Trip Planner

Search our weather history database for the weather conditions in past years. The results will help you decide how hot, cold, wet, or windy it might be!

Date:

Astronomy

Jul. 26, 2013 Rise Set
Actual Time 5:58 AM CDT 7:45 PM CDT
Civil Twilight 5:31 AM CDT 8:11 PM CDT
Nautical Twilight 4:59 AM CDT 8:44 PM CDT
Astronomical Twilight 4:25 AM CDT 9:18 PM CDT
Moon 10:22 PM CDT (7/26) 10:12 AM CDT (7/26)
Length of Visible Light 14h 40m
Length of Day
13h 46m
Waning Gibbous, 80% of the Moon is Illuminated
Jul 26
Waning Gibbous
Jul 29
Last Quarter
Aug 6
New
Aug 14
First Quarter
Aug 20
Full

Hourly Weather History & Observations

Time (CDT) Temp. Heat Index Dew Point Humidity Pressure Visibility Wind Dir Wind Speed Gust Speed Precip Events Conditions
12:56 AM 75.9 °F - 72.0 °F 87% 30.00 in 10.0 mi NNW 3.5 mph - N/A   Clear
1:56 AM 75.9 °F - 72.0 °F 87% 29.99 in 10.0 mi NW 3.5 mph - N/A   Clear
2:56 AM 75.0 °F - 71.1 °F 87% 29.99 in 10.0 mi Calm Calm - N/A   Clear
3:56 AM 73.9 °F - 71.1 °F 91% 29.99 in 10.0 mi Calm Calm - N/A   Clear
4:56 AM 73.0 °F - 70.0 °F 90% 30.00 in 10.0 mi NNW 3.5 mph - N/A   Clear
5:56 AM 73.0 °F - 69.1 °F 87% 30.01 in 10.0 mi Calm Calm - N/A   Clear
6:56 AM 73.9 °F - 70.0 °F 87% 30.02 in 10.0 mi Calm Calm - N/A   Clear
7:56 AM 78.1 °F - 70.0 °F 76% 30.02 in 10.0 mi Calm Calm - N/A   Clear
8:56 AM 82.9 °F 86.5 °F 69.1 °F 63% 30.03 in 10.0 mi Calm Calm - N/A   Clear
9:56 AM 84.0 °F 87.0 °F 68.0 °F 58% 30.04 in 10.0 mi WNW 5.8 mph - N/A   Clear
10:56 AM 86.0 °F 88.2 °F 66.0 °F 51% 30.04 in 10.0 mi Variable 6.9 mph - N/A   Clear
11:56 AM 88.0 °F 89.3 °F 64.0 °F 45% 30.04 in 10.0 mi WNW 9.2 mph - N/A   Clear
12:56 PM 89.1 °F 91.3 °F 66.0 °F 46% 30.02 in 10.0 mi NW 9.2 mph 16.1 mph N/A   Clear
1:56 PM 90.0 °F 92.8 °F 66.9 °F 46% 30.00 in 10.0 mi NNW 8.1 mph - N/A   Clear
2:56 PM 91.0 °F 93.0 °F 64.9 °F 42% 29.99 in 10.0 mi NNW 6.9 mph - N/A   Clear
3:56 PM 91.0 °F 93.8 °F 66.0 °F 44% 29.98 in 10.0 mi NW 6.9 mph - N/A   Clear
4:56 PM 90.0 °F 92.8 °F 66.9 °F 46% 29.97 in 10.0 mi NNW 4.6 mph - N/A   Clear
5:56 PM 90.0 °F 92.8 °F 66.9 °F 46% 29.97 in 10.0 mi North 6.9 mph - N/A   Clear
6:56 PM 84.0 °F 90.2 °F 73.0 °F 69% 29.97 in 10.0 mi Calm Calm - N/A   Clear
7:56 PM 80.1 °F 83.8 °F 72.0 °F 76% 29.96 in 10.0 mi Calm Calm - N/A   Clear
8:56 PM 80.1 °F 84.2 °F 73.0 °F 79% 29.97 in 10.0 mi Calm Calm - N/A   Clear
9:56 PM 78.1 °F - 73.0 °F 84% 29.98 in 10.0 mi Calm Calm - N/A   Clear
10:56 PM 75.9 °F - 72.0 °F 87% 29.97 in 10.0 mi Calm Calm - N/A   Clear
11:56 PM 75.0 °F - 71.1 °F 87% 29.96 in 10.0 mi Calm Calm - N/A   Clear